Year,Month,Day,Hour,Minute,Value (Times are PST for temperature in C)
2016,07,29,00,00,15.00
2016,07,29,00,01,15.00
2016,07,29,00,02,14.90
2016,07,29,00,03,14.90
2016,07,29,00,04,14.90
2016,07,29,00,05,14.90
2016,07,29,00,06,14.90
2016,07,29,00,07,14.90
2016,07,29,00,08,14.90
2016,07,29,00,09,14.90
2016,07,29,00,10,14.90
2016,07,29,00,11,14.90
2016,07,29,00,12,14.90
2016,07,29,00,13,14.90
2016,07,29,00,14,14.80
2016,07,29,00,15,14.80
2016,07,29,00,16,14.80
2016,07,29,00,17,14.80
2016,07,29,00,18,14.80
2016,07,29,00,19,14.80
2016,07,29,00,20,14.80
2016,07,29,00,21,14.70
2016,07,29,00,22,14.70
2016,07,29,00,23,14.70
2016,07,29,00,24,14.70
2016,07,29,00,25,14.70
2016,07,29,00,26,14.60
2016,07,29,00,27,14.60
2016,07,29,00,28,14.60
2016,07,29,00,29,14.50
2016,07,29,00,30,14.50
2016,07,29,00,31,14.40
2016,07,29,00,32,14.40
2016,07,29,00,33,14.40
2016,07,29,00,34,14.30
2016,07,29,00,35,14.30
2016,07,29,00,36,14.20
2016,07,29,00,37,14.20
2016,07,29,00,38,14.20
2016,07,29,00,39,14.10
2016,07,29,00,40,14.10
2016,07,29,00,41,14.10
2016,07,29,00,42,14.00
2016,07,29,00,43,14.00
2016,07,29,00,44,14.00
2016,07,29,00,45,13.90
2016,07,29,00,46,13.90
2016,07,29,00,47,13.90
2016,07,29,00,48,13.90
2016,07,29,00,49,13.80
2016,07,29,00,50,13.80
2016,07,29,00,51,13.80
2016,07,29,00,52,13.80
2016,07,29,00,53,13.80
2016,07,29,00,54,13.80
2016,07,29,00,55,13.70
2016,07,29,00,56,13.70
2016,07,29,00,57,13.70
2016,07,29,00,58,13.70
2016,07,29,00,59,13.70
2016,07,29,01,00,13.70
2016,07,29,01,01,13.70
2016,07,29,01,02,13.70
2016,07,29,01,03,13.70
2016,07,29,01,04,13.70
2016,07,29,01,05,13.60
2016,07,29,01,06,13.60
2016,07,29,01,07,13.60
2016,07,29,01,08,13.60
2016,07,29,01,09,13.70
2016,07,29,01,10,13.70
2016,07,29,01,11,13.70
2016,07,29,01,12,13.70
2016,07,29,01,13,13.70
2016,07,29,01,14,13.70
2016,07,29,01,15,13.70
2016,07,29,01,16,13.70
2016,07,29,01,17,13.70
2016,07,29,01,18,13.70
2016,07,29,01,19,13.70
2016,07,29,01,20,13.70
2016,07,29,01,21,13.70
2016,07,29,01,22,13.70
2016,07,29,01,23,13.70
2016,07,29,01,24,13.70
2016,07,29,01,25,13.70
2016,07,29,01,26,13.70
2016,07,29,01,27,13.70
2016,07,29,01,28,13.70
2016,07,29,01,29,13.70
2016,07,29,01,30,13.70
2016,07,29,01,31,13.70
2016,07,29,01,32,13.70
2016,07,29,01,33,13.70
2016,07,29,01,34,13.70
2016,07,29,01,35,13.70
2016,07,29,01,36,13.70
2016,07,29,01,37,13.70
2016,07,29,01,38,13.60
2016,07,29,01,39,13.60
2016,07,29,01,40,13.60
2016,07,29,01,41,13.60
2016,07,29,01,42,13.60
2016,07,29,01,43,13.60
2016,07,29,01,44,13.60
2016,07,29,01,45,13.60
2016,07,29,01,46,13.60
2016,07,29,01,47,13.60
2016,07,29,01,48,13.60
2016,07,29,01,49,13.60
2016,07,29,01,50,13.50
2016,07,29,01,51,13.50
2016,07,29,01,52,13.50
2016,07,29,01,53,13.50
2016,07,29,01,54,13.50
2016,07,29,01,55,13.50
2016,07,29,01,56,13.50
2016,07,29,01,57,13.50
2016,07,29,01,58,13.50
2016,07,29,01,59,13.50
2016,07,29,02,00,13.50
2016,07,29,02,01,13.50
2016,07,29,02,02,13.50
2016,07,29,02,03,13.40
2016,07,29,02,04,13.40
2016,07,29,02,05,13.40
2016,07,29,02,06,13.40
2016,07,29,02,07,13.40
2016,07,29,02,08,13.40
2016,07,29,02,09,13.40
2016,07,29,02,10,13.40
2016,07,29,02,11,13.40
2016,07,29,02,12,13.40
2016,07,29,02,13,13.40
2016,07,29,02,14,13.40
2016,07,29,02,15,13.40
2016,07,29,02,16,13.40
2016,07,29,02,17,13.40
2016,07,29,02,18,13.40
2016,07,29,02,19,13.40
2016,07,29,02,20,13.30
2016,07,29,02,21,13.30
2016,07,29,02,22,13.30
2016,07,29,02,23,13.30
2016,07,29,02,24,13.30
2016,07,29,02,25,13.30
2016,07,29,02,26,13.30
2016,07,29,02,27,13.30
2016,07,29,02,28,13.30
2016,07,29,02,29,13.30
2016,07,29,02,30,13.30
2016,07,29,02,31,13.20
2016,07,29,02,32,13.20
2016,07,29,02,33,13.20
2016,07,29,02,34,13.20
2016,07,29,02,35,13.20
2016,07,29,02,36,13.20
2016,07,29,02,37,13.20
2016,07,29,02,38,13.20
2016,07,29,02,39,13.20
2016,07,29,02,40,13.20
2016,07,29,02,41,13.20
2016,07,29,02,42,13.20
2016,07,29,02,43,13.20
2016,07,29,02,44,13.20
2016,07,29,02,45,13.20
2016,07,29,02,46,13.20
2016,07,29,02,47,13.10
2016,07,29,02,48,13.10
2016,07,29,02,49,13.10
2016,07,29,02,50,13.10
2016,07,29,02,51,13.10
2016,07,29,02,52,13.10
2016,07,29,02,53,13.10
2016,07,29,02,54,13.10
2016,07,29,02,55,13.10
2016,07,29,02,56,13.10
2016,07,29,02,57,13.10
2016,07,29,02,58,13.10
2016,07,29,02,59,13.10
2016,07,29,03,00,13.10
2016,07,29,03,01,13.10
2016,07,29,03,02,13.00
2016,07,29,03,03,13.00
2016,07,29,03,04,13.00
2016,07,29,03,05,13.00
2016,07,29,03,06,13.00
2016,07,29,03,07,13.00
2016,07,29,03,08,13.00
2016,07,29,03,09,13.00
2016,07,29,03,10,13.00
2016,07,29,03,11,13.00
2016,07,29,03,12,13.00
2016,07,29,03,13,13.00
2016,07,29,03,14,13.00
2016,07,29,03,15,13.10
2016,07,29,03,16,13.10
2016,07,29,03,17,13.10
2016,07,29,03,18,13.10
2016,07,29,03,19,13.10
2016,07,29,03,20,13.10
2016,07,29,03,21,13.10
2016,07,29,03,22,13.10
2016,07,29,03,23,13.10
2016,07,29,03,24,13.10
2016,07,29,03,25,13.10
2016,07,29,03,26,13.10
2016,07,29,03,27,13.10
2016,07,29,03,28,13.10
2016,07,29,03,29,13.10
2016,07,29,03,30,13.10
2016,07,29,03,31,13.10
2016,07,29,03,32,13.20
2016,07,29,03,33,13.20
2016,07,29,03,34,13.20
2016,07,29,03,35,13.20
2016,07,29,03,36,13.20
2016,07,29,03,37,13.20
2016,07,29,03,38,13.20
2016,07,29,03,39,13.20
2016,07,29,03,40,13.20
2016,07,29,03,41,13.20
2016,07,29,03,42,13.20
2016,07,29,03,43,13.30
2016,07,29,03,44,13.30
2016,07,29,03,45,13.30
2016,07,29,03,46,13.30
2016,07,29,03,47,13.30
2016,07,29,03,48,13.40
2016,07,29,03,49,13.40
2016,07,29,03,50,13.40
2016,07,29,03,51,13.50
2016,07,29,03,52,13.50
2016,07,29,03,53,13.50
2016,07,29,03,54,13.60
2016,07,29,03,55,13.60
2016,07,29,03,56,13.60
2016,07,29,03,57,13.60
2016,07,29,03,58,13.60
2016,07,29,03,59,13.60
2016,07,29,04,00,13.60
2016,07,29,04,01,13.60
2016,07,29,04,02,13.60
2016,07,29,04,03,13.60
2016,07,29,04,04,13.60
2016,07,29,04,05,13.60
2016,07,29,04,06,13.60
2016,07,29,04,07,13.60
2016,07,29,04,08,13.70
2016,07,29,04,09,13.70
2016,07,29,04,10,13.70
2016,07,29,04,11,13.70
2016,07,29,04,12,13.70
2016,07,29,04,13,13.70
2016,07,29,04,14,13.70
2016,07,29,04,15,13.70
2016,07,29,04,16,13.70
2016,07,29,04,17,13.70
2016,07,29,04,18,13.70
2016,07,29,04,19,13.70
2016,07,29,04,20,13.70
2016,07,29,04,21,13.70
2016,07,29,04,22,13.70
2016,07,29,04,23,13.70
2016,07,29,04,24,13.60
2016,07,29,04,25,13.60
2016,07,29,04,26,13.60
2016,07,29,04,27,13.60
2016,07,29,04,28,13.60
2016,07,29,04,29,13.60
2016,07,29,04,30,13.60
2016,07,29,04,31,13.60
2016,07,29,04,32,13.60
2016,07,29,04,33,13.60
2016,07,29,04,34,13.60
2016,07,29,04,35,13.50
2016,07,29,04,36,13.50
2016,07,29,04,37,13.50
2016,07,29,04,38,13.50
2016,07,29,04,39,13.50
2016,07,29,04,40,13.50
2016,07,29,04,41,13.50
2016,07,29,04,42,13.40
2016,07,29,04,43,13.40
2016,07,29,04,44,13.40
2016,07,29,04,45,13.40
2016,07,29,04,46,13.40
2016,07,29,04,47,13.40
2016,07,29,04,48,13.40
2016,07,29,04,49,13.40
2016,07,29,04,50,13.40
2016,07,29,04,51,13.30
2016,07,29,04,52,13.30
2016,07,29,04,53,13.30
2016,07,29,04,54,13.30
2016,07,29,04,55,13.30
2016,07,29,04,56,13.30
2016,07,29,04,57,13.30
2016,07,29,04,58,13.30
2016,07,29,04,59,13.30
2016,07,29,05,00,13.30
2016,07,29,05,01,13.30
2016,07,29,05,02,13.30
2016,07,29,05,03,13.30
2016,07,29,05,04,13.30
2016,07,29,05,05,13.30
2016,07,29,05,06,13.30
2016,07,29,05,07,13.30
2016,07,29,05,08,13.30
2016,07,29,05,09,13.30
2016,07,29,05,10,13.30
2016,07,29,05,11,13.30
2016,07,29,05,12,13.30
2016,07,29,05,13,13.20
2016,07,29,05,14,13.20
2016,07,29,05,15,13.20
2016,07,29,05,16,13.20
2016,07,29,05,17,13.20
2016,07,29,05,18,13.20
2016,07,29,05,19,13.20
2016,07,29,05,20,13.20
2016,07,29,05,21,13.20
2016,07,29,05,22,13.20
2016,07,29,05,23,13.20
2016,07,29,05,24,13.20
2016,07,29,05,25,13.20
2016,07,29,05,26,13.20
2016,07,29,05,27,13.20
2016,07,29,05,28,13.20
2016,07,29,05,29,13.20
2016,07,29,05,30,13.20
2016,07,29,05,31,13.20
2016,07,29,05,32,13.20
2016,07,29,05,33,13.20
2016,07,29,05,34,13.20
2016,07,29,05,35,13.20
2016,07,29,05,36,13.20
2016,07,29,05,37,13.20
2016,07,29,05,38,13.20
2016,07,29,05,39,13.20
2016,07,29,05,40,13.20
2016,07,29,05,41,13.20
2016,07,29,05,42,13.20
2016,07,29,05,43,13.10
2016,07,29,05,44,13.10
2016,07,29,05,45,13.10
2016,07,29,05,46,13.10
2016,07,29,05,47,13.10
2016,07,29,05,48,13.10
2016,07,29,05,49,13.10
2016,07,29,05,50,13.10
2016,07,29,05,51,13.10
2016,07,29,05,52,13.10
2016,07,29,05,53,13.10
2016,07,29,05,54,13.10
2016,07,29,05,55,13.10
2016,07,29,05,56,13.00
2016,07,29,05,57,13.00
2016,07,29,05,58,13.00
2016,07,29,05,59,13.00
2016,07,29,06,00,13.00
2016,07,29,06,01,13.00
2016,07,29,06,02,13.00
2016,07,29,06,03,13.00
2016,07,29,06,04,12.90
2016,07,29,06,05,12.90
2016,07,29,06,06,12.90
2016,07,29,06,07,12.90
2016,07,29,06,08,12.90
2016,07,29,06,09,12.90
2016,07,29,06,10,12.90
2016,07,29,06,11,12.90
2016,07,29,06,12,12.90
2016,07,29,06,13,12.90
2016,07,29,06,14,12.90
2016,07,29,06,15,12.90
2016,07,29,06,16,12.90
2016,07,29,06,17,12.90
2016,07,29,06,18,12.90
2016,07,29,06,19,12.90
2016,07,29,06,20,12.90
2016,07,29,06,21,12.90
2016,07,29,06,22,12.90
2016,07,29,06,23,12.90
2016,07,29,06,24,12.90
2016,07,29,06,25,12.90
2016,07,29,06,26,12.90
2016,07,29,06,27,12.90
2016,07,29,06,28,12.90
2016,07,29,06,29,13.00
2016,07,29,06,30,13.00
2016,07,29,06,31,13.00
2016,07,29,06,32,13.00
2016,07,29,06,33,13.10
2016,07,29,06,34,13.10
2016,07,29,06,35,13.10
2016,07,29,06,36,13.10
2016,07,29,06,37,13.20
2016,07,29,06,38,13.20
2016,07,29,06,39,13.20
2016,07,29,06,40,13.20
2016,07,29,06,41,13.20
2016,07,29,06,42,13.20
2016,07,29,06,43,13.20
2016,07,29,06,44,13.30
2016,07,29,06,45,13.30
2016,07,29,06,46,13.30
2016,07,29,06,47,13.30
2016,07,29,06,48,13.30
2016,07,29,06,49,13.40
2016,07,29,06,50,13.40
2016,07,29,06,51,13.40
2016,07,29,06,52,13.40
2016,07,29,06,53,13.40
2016,07,29,06,54,13.50
2016,07,29,06,55,13.50
2016,07,29,06,56,13.50
2016,07,29,06,57,13.60
2016,07,29,06,58,13.60
2016,07,29,06,59,13.60
2016,07,29,07,00,13.60
2016,07,29,07,01,13.70
2016,07,29,07,02,13.70
2016,07,29,07,03,13.70
2016,07,29,07,04,13.70
2016,07,29,07,05,13.70
2016,07,29,07,06,13.80
2016,07,29,07,07,13.80
2016,07,29,07,08,13.80
2016,07,29,07,09,13.80
2016,07,29,07,10,13.80
2016,07,29,07,11,13.90
2016,07,29,07,12,13.90
2016,07,29,07,13,13.90
2016,07,29,07,14,14.00
2016,07,29,07,15,14.00
2016,07,29,07,16,14.10
2016,07,29,07,17,14.10
2016,07,29,07,18,14.10
2016,07,29,07,19,14.20
2016,07,29,07,20,14.20
2016,07,29,07,21,14.20
2016,07,29,07,22,14.30
2016,07,29,07,23,14.40
2016,07,29,07,24,14.40
2016,07,29,07,25,14.50
2016,07,29,07,26,14.60
2016,07,29,07,27,14.70
2016,07,29,07,28,14.70
2016,07,29,07,29,14.80
2016,07,29,07,30,14.90
2016,07,29,07,31,15.00
2016,07,29,07,32,15.10
2016,07,29,07,33,15.20
2016,07,29,07,34,15.20
2016,07,29,07,35,15.30
2016,07,29,07,36,15.40
2016,07,29,07,37,15.50
2016,07,29,07,38,15.50
2016,07,29,07,39,15.60
2016,07,29,07,40,15.70
2016,07,29,07,41,15.80
2016,07,29,07,42,15.80
2016,07,29,07,43,15.90
2016,07,29,07,44,16.00
2016,07,29,07,45,16.00
2016,07,29,07,46,16.10
2016,07,29,07,47,16.20
2016,07,29,07,48,16.30
2016,07,29,07,49,16.30
2016,07,29,07,50,16.40
2016,07,29,07,51,16.50
2016,07,29,07,52,16.50
2016,07,29,07,53,16.60
2016,07,29,07,54,16.60
2016,07,29,07,55,16.70
2016,07,29,07,56,16.80
2016,07,29,07,57,16.80
2016,07,29,07,58,16.90
2016,07,29,07,59,17.00
2016,07,29,08,00,17.00
2016,07,29,08,01,17.10
2016,07,29,08,02,17.20
2016,07,29,08,03,17.30
2016,07,29,08,04,17.40
2016,07,29,08,05,17.50
2016,07,29,08,06,17.50
2016,07,29,08,07,17.50
2016,07,29,08,08,17.50
2016,07,29,08,09,17.50
2016,07,29,08,10,17.40
2016,07,29,08,11,17.40
2016,07,29,08,12,17.40
2016,07,29,08,13,17.40
2016,07,29,08,14,17.40
2016,07,29,08,15,17.40
2016,07,29,08,16,17.40
2016,07,29,08,17,17.40
2016,07,29,08,18,17.40
2016,07,29,08,19,17.40
2016,07,29,08,20,17.40
2016,07,29,08,21,17.40
2016,07,29,08,22,17.40
2016,07,29,08,23,17.40
2016,07,29,08,24,17.40
2016,07,29,08,25,17.40
2016,07,29,08,26,17.40
2016,07,29,08,27,17.50
2016,07,29,08,28,17.50
2016,07,29,08,29,17.60
2016,07,29,08,30,17.70
2016,07,29,08,31,17.80
2016,07,29,08,32,17.80
2016,07,29,08,33,17.90
2016,07,29,08,34,17.90
2016,07,29,08,35,18.00
2016,07,29,08,36,18.10
2016,07,29,08,37,18.10
2016,07,29,08,38,18.20
2016,07,29,08,39,18.20
2016,07,29,08,40,18.30
2016,07,29,08,41,18.30
2016,07,29,08,42,18.30
2016,07,29,08,43,18.30
2016,07,29,08,44,18.30
2016,07,29,08,45,18.30
2016,07,29,08,46,18.30
2016,07,29,08,47,18.40
2016,07,29,08,48,18.40
2016,07,29,08,49,18.40
2016,07,29,08,50,18.40
2016,07,29,08,51,18.40
2016,07,29,08,52,18.40
2016,07,29,08,53,18.30
2016,07,29,08,54,18.20
2016,07,29,08,55,18.20
2016,07,29,08,56,18.10
2016,07,29,08,57,18.10
2016,07,29,08,58,18.00
2016,07,29,08,59,18.00
2016,07,29,09,00,18.00
2016,07,29,09,01,18.00
2016,07,29,09,02,18.00
2016,07,29,09,03,18.10
2016,07,29,09,04,18.10
2016,07,29,09,05,18.10
2016,07,29,09,06,18.10
2016,07,29,09,07,18.10
2016,07,29,09,08,18.10
2016,07,29,09,09,18.10
2016,07,29,09,10,18.10
2016,07,29,09,11,18.10
2016,07,29,09,12,18.10
2016,07,29,09,13,18.10
2016,07,29,09,14,18.10
2016,07,29,09,15,18.10
2016,07,29,09,16,18.20
2016,07,29,09,17,18.20
2016,07,29,09,18,18.20
2016,07,29,09,19,18.30
2016,07,29,09,20,18.30
2016,07,29,09,21,18.30
2016,07,29,09,22,18.40
2016,07,29,09,23,18.40
2016,07,29,09,24,18.50
2016,07,29,09,25,18.50
2016,07,29,09,26,18.60
2016,07,29,09,27,18.60
2016,07,29,09,28,18.70
2016,07,29,09,29,18.70
2016,07,29,09,30,18.70
2016,07,29,09,31,18.70
2016,07,29,09,32,18.70
2016,07,29,09,33,18.70
2016,07,29,09,34,18.70
2016,07,29,09,35,18.70
2016,07,29,09,36,18.70
2016,07,29,09,37,18.70
2016,07,29,09,38,18.70
2016,07,29,09,39,18.70
2016,07,29,09,40,18.80
2016,07,29,09,41,18.80
2016,07,29,09,42,18.80
2016,07,29,09,43,18.90
2016,07,29,09,44,18.90
2016,07,29,09,45,19.00
2016,07,29,09,46,19.10
2016,07,29,09,47,19.10
2016,07,29,09,48,19.10
2016,07,29,09,49,19.10
2016,07,29,09,50,19.10
2016,07,29,09,51,19.10
2016,07,29,09,52,19.10
2016,07,29,09,53,19.10
2016,07,29,09,54,19.10
2016,07,29,09,55,19.10
2016,07,29,09,56,19.10
2016,07,29,09,57,19.10
2016,07,29,09,58,19.10
2016,07,29,09,59,19.00
2016,07,29,10,00,19.00
2016,07,29,10,01,19.00
2016,07,29,10,02,19.10
2016,07,29,10,03,19.10
2016,07,29,10,04,19.10
2016,07,29,10,05,19.10
2016,07,29,10,06,19.10
2016,07,29,10,07,19.20
2016,07,29,10,08,19.30
2016,07,29,10,09,19.30
2016,07,29,10,10,19.40
2016,07,29,10,11,19.50
2016,07,29,10,12,19.60
2016,07,29,10,13,19.70
2016,07,29,10,14,19.80
2016,07,29,10,15,19.90
2016,07,29,10,16,19.90
2016,07,29,10,17,19.90
2016,07,29,10,18,20.00
2016,07,29,10,19,20.10
2016,07,29,10,20,20.20
2016,07,29,10,21,20.20
2016,07,29,10,22,20.30
2016,07,29,10,23,20.30
2016,07,29,10,24,20.40
2016,07,29,10,25,20.40
2016,07,29,10,26,20.40
2016,07,29,10,27,20.40
2016,07,29,10,28,20.50
2016,07,29,10,29,20.50
2016,07,29,10,30,20.60
2016,07,29,10,31,20.60
2016,07,29,10,32,20.70
2016,07,29,10,33,20.70
2016,07,29,10,34,20.70
2016,07,29,10,35,20.70
2016,07,29,10,36,20.70
2016,07,29,10,37,20.70
2016,07,29,10,38,20.80
2016,07,29,10,39,20.80
2016,07,29,10,40,20.80
2016,07,29,10,41,20.80
2016,07,29,10,42,20.80
2016,07,29,10,43,20.90
2016,07,29,10,44,20.90
2016,07,29,10,45,20.90
2016,07,29,10,46,20.90
2016,07,29,10,47,20.90
2016,07,29,10,48,20.90
2016,07,29,10,49,21.00
2016,07,29,10,50,21.00
2016,07,29,10,51,21.10
2016,07,29,10,52,21.10
2016,07,29,10,53,21.10
2016,07,29,10,54,21.10
2016,07,29,10,55,21.10
2016,07,29,10,56,21.10
2016,07,29,10,57,21.10
2016,07,29,10,58,21.10
2016,07,29,10,59,21.10
2016,07,29,11,00,21.10
2016,07,29,11,01,21.10
2016,07,29,11,02,21.20
2016,07,29,11,03,21.20
2016,07,29,11,04,21.20
2016,07,29,11,05,21.20
2016,07,29,11,06,21.20
2016,07,29,11,07,21.10
2016,07,29,11,08,21.00
2016,07,29,11,09,20.90
2016,07,29,11,10,20.80
2016,07,29,11,11,20.80
2016,07,29,11,12,20.70
2016,07,29,11,13,20.60
2016,07,29,11,14,20.60
2016,07,29,11,15,20.60
2016,07,29,11,16,20.60
2016,07,29,11,17,20.60
2016,07,29,11,18,20.70
2016,07,29,11,19,20.70
2016,07,29,11,20,20.70
2016,07,29,11,21,20.70
2016,07,29,11,22,20.60
2016,07,29,11,23,20.60
2016,07,29,11,24,20.50
2016,07,29,11,25,20.40
2016,07,29,11,26,20.40
2016,07,29,11,27,20.40
2016,07,29,11,28,20.50
2016,07,29,11,29,20.50
2016,07,29,11,30,20.60
2016,07,29,11,31,20.70
2016,07,29,11,32,20.70
2016,07,29,11,33,20.80
2016,07,29,11,34,20.80
2016,07,29,11,35,20.90
2016,07,29,11,36,21.00
2016,07,29,11,37,21.10
2016,07,29,11,38,21.10
2016,07,29,11,39,21.20
2016,07,29,11,40,21.20
2016,07,29,11,41,21.30
2016,07,29,11,42,21.30
2016,07,29,11,43,21.30
2016,07,29,11,44,21.30
2016,07,29,11,45,21.40
2016,07,29,11,46,21.40
2016,07,29,11,47,21.40
2016,07,29,11,48,21.40
2016,07,29,11,49,21.40
2016,07,29,11,50,21.50
2016,07,29,11,51,21.50
2016,07,29,11,52,21.50
2016,07,29,11,53,21.60
2016,07,29,11,54,21.60
2016,07,29,11,55,21.70
2016,07,29,11,56,21.70
2016,07,29,11,57,21.80
2016,07,29,11,58,21.80
2016,07,29,11,59,21.90
2016,07,29,12,00,21.90
2016,07,29,12,01,21.90
2016,07,29,12,02,21.90
2016,07,29,12,03,21.90
2016,07,29,12,04,21.90
2016,07,29,12,05,22.00
2016,07,29,12,06,22.00
2016,07,29,12,07,22.00
2016,07,29,12,08,21.90
2016,07,29,12,09,21.90
2016,07,29,12,10,21.90
2016,07,29,12,11,21.90
2016,07,29,12,12,21.90
2016,07,29,12,13,21.90
2016,07,29,12,14,21.90
2016,07,29,12,15,21.90
2016,07,29,12,16,21.90
2016,07,29,12,17,21.80
2016,07,29,12,18,21.70
2016,07,29,12,19,21.70
2016,07,29,12,20,21.60
2016,07,29,12,21,21.50
2016,07,29,12,22,21.50
2016,07,29,12,23,21.50
2016,07,29,12,24,21.50
2016,07,29,12,25,21.50
2016,07,29,12,26,21.60
2016,07,29,12,27,21.60
2016,07,29,12,28,21.70
2016,07,29,12,29,21.70
2016,07,29,12,30,21.70
2016,07,29,12,31,21.70
2016,07,29,12,32,21.70
2016,07,29,12,33,21.70
2016,07,29,12,34,21.60
2016,07,29,12,35,21.60
2016,07,29,12,36,21.60
2016,07,29,12,37,21.60
2016,07,29,12,38,21.70
2016,07,29,12,39,21.70
2016,07,29,12,40,21.70
2016,07,29,12,41,21.70
2016,07,29,12,42,21.70
2016,07,29,12,43,21.80
2016,07,29,12,44,21.90
2016,07,29,12,45,22.00
2016,07,29,12,46,22.00
2016,07,29,12,47,22.10
2016,07,29,12,48,22.10
2016,07,29,12,49,22.20
2016,07,29,12,50,22.30
2016,07,29,12,51,22.40
2016,07,29,12,52,22.40
2016,07,29,12,53,22.50
2016,07,29,12,54,22.50
2016,07,29,12,55,22.60
2016,07,29,12,56,22.60
2016,07,29,12,57,22.70
2016,07,29,12,58,22.80
2016,07,29,12,59,22.80
2016,07,29,13,00,22.90
2016,07,29,13,01,22.90
2016,07,29,13,02,23.00
2016,07,29,13,03,23.00
2016,07,29,13,04,23.10
2016,07,29,13,05,23.10
2016,07,29,13,06,23.20
2016,07,29,13,07,23.20
2016,07,29,13,08,23.20
2016,07,29,13,09,23.20
2016,07,29,13,10,23.20
2016,07,29,13,11,23.20
2016,07,29,13,12,23.10
2016,07,29,13,13,23.10
2016,07,29,13,14,23.20
2016,07,29,13,15,23.20
2016,07,29,13,16,23.20
2016,07,29,13,17,23.30
2016,07,29,13,18,23.30
2016,07,29,13,19,23.30
2016,07,29,13,20,23.30
2016,07,29,13,21,23.30
2016,07,29,13,22,23.30
2016,07,29,13,23,23.30
2016,07,29,13,24,23.30
2016,07,29,13,25,23.30
2016,07,29,13,26,23.30
2016,07,29,13,27,23.30
2016,07,29,13,28,23.30
2016,07,29,13,29,23.30
2016,07,29,13,30,23.30
2016,07,29,13,31,23.40
2016,07,29,13,32,23.40
2016,07,29,13,33,23.30
2016,07,29,13,34,23.30
2016,07,29,13,35,23.30
2016,07,29,13,36,23.30
2016,07,29,13,37,23.30
2016,07,29,13,38,23.30
2016,07,29,13,39,23.20
2016,07,29,13,40,23.20
2016,07,29,13,41,23.20
2016,07,29,13,42,23.10
2016,07,29,13,43,23.10
2016,07,29,13,44,23.20
2016,07,29,13,45,23.20
2016,07,29,13,46,23.20
2016,07,29,13,47,23.30
2016,07,29,13,48,23.30
2016,07,29,13,49,23.20
2016,07,29,13,50,23.10
2016,07,29,13,51,23.00
2016,07,29,13,52,22.90
2016,07,29,13,53,22.90
2016,07,29,13,54,22.80
2016,07,29,13,55,22.60
2016,07,29,13,56,22.50
2016,07,29,13,57,22.50
2016,07,29,13,58,22.40
2016,07,29,13,59,22.40
2016,07,29,14,00,22.40
2016,07,29,14,01,22.40
2016,07,29,14,02,22.50
2016,07,29,14,03,22.50
2016,07,29,14,04,22.60
2016,07,29,14,05,22.60
2016,07,29,14,06,22.60
2016,07,29,14,07,22.70
2016,07,29,14,08,22.70
2016,07,29,14,09,22.70
2016,07,29,14,10,22.70
2016,07,29,14,11,22.60
2016,07,29,14,12,22.60
2016,07,29,14,13,22.60
2016,07,29,14,14,22.60
2016,07,29,14,15,22.60
2016,07,29,14,16,22.40
2016,07,29,14,17,22.40
2016,07,29,14,18,22.30
2016,07,29,14,19,22.40
2016,07,29,14,20,22.40
2016,07,29,14,21,22.50
2016,07,29,14,22,22.50
2016,07,29,14,23,22.60
2016,07,29,14,24,22.60
2016,07,29,14,25,22.70
2016,07,29,14,26,22.70
2016,07,29,14,27,22.80
2016,07,29,14,28,22.80
2016,07,29,14,29,22.80
2016,07,29,14,30,22.80
2016,07,29,14,31,22.70
2016,07,29,14,32,22.70
2016,07,29,14,33,22.60
2016,07,29,14,34,22.60
2016,07,29,14,35,22.60
2016,07,29,14,36,22.50
2016,07,29,14,37,22.40
2016,07,29,14,38,22.30
2016,07,29,14,39,22.20
2016,07,29,14,40,22.10
2016,07,29,14,41,22.00
2016,07,29,14,42,21.90
2016,07,29,14,43,21.80
2016,07,29,14,44,21.80
2016,07,29,14,45,21.80
2016,07,29,14,46,21.80
2016,07,29,14,47,21.90
2016,07,29,14,48,21.90
2016,07,29,14,49,22.00
2016,07,29,14,50,22.00
2016,07,29,14,51,22.10
2016,07,29,14,52,22.10
2016,07,29,14,53,22.00
2016,07,29,14,54,22.00
2016,07,29,14,55,22.00
2016,07,29,14,56,22.00
2016,07,29,14,57,22.10
2016,07,29,14,58,22.10
2016,07,29,14,59,22.20
2016,07,29,15,00,22.20
2016,07,29,15,01,22.20
2016,07,29,15,02,22.10
2016,07,29,15,03,21.90
2016,07,29,15,04,21.80
2016,07,29,15,05,21.70
2016,07,29,15,06,21.60
2016,07,29,15,07,21.50
2016,07,29,15,08,21.30
2016,07,29,15,09,21.20
2016,07,29,15,10,21.20
2016,07,29,15,11,21.20
2016,07,29,15,12,21.20
2016,07,29,15,13,21.20
2016,07,29,15,14,21.30
2016,07,29,15,15,21.20
2016,07,29,15,16,21.20
2016,07,29,15,17,21.20
2016,07,29,15,18,21.30
2016,07,29,15,19,21.40
2016,07,29,15,20,21.50
2016,07,29,15,21,21.50
2016,07,29,15,22,21.60
2016,07,29,15,23,21.60
2016,07,29,15,24,21.60
2016,07,29,15,25,21.70
2016,07,29,15,26,21.70
2016,07,29,15,27,21.70
2016,07,29,15,28,21.70
2016,07,29,15,29,21.70
2016,07,29,15,30,21.70
2016,07,29,15,31,21.60
2016,07,29,15,32,21.60
2016,07,29,15,33,21.50
2016,07,29,15,34,21.40
2016,07,29,15,35,21.30
2016,07,29,15,36,21.30
2016,07,29,15,37,21.30
2016,07,29,15,38,21.30
2016,07,29,15,39,21.30
2016,07,29,15,40,21.20
2016,07,29,15,41,21.20
2016,07,29,15,42,21.10
2016,07,29,15,43,21.10
2016,07,29,15,44,21.10
2016,07,29,15,45,21.20
2016,07,29,15,46,21.20
2016,07,29,15,47,21.20
2016,07,29,15,48,21.30
2016,07,29,15,49,21.30
2016,07,29,15,50,21.30
2016,07,29,15,51,21.20
2016,07,29,15,52,21.30
2016,07,29,15,53,21.30
2016,07,29,15,54,21.30
2016,07,29,15,55,21.40
2016,07,29,15,56,21.40
2016,07,29,15,57,21.50
2016,07,29,15,58,21.50
2016,07,29,15,59,21.50
2016,07,29,16,00,21.50
2016,07,29,16,01,21.50
2016,07,29,16,02,21.40
2016,07,29,16,03,21.40
2016,07,29,16,04,21.40
2016,07,29,16,05,21.50
2016,07,29,16,06,21.50
2016,07,29,16,07,21.60
2016,07,29,16,08,21.70
2016,07,29,16,09,21.70
2016,07,29,16,10,21.70
2016,07,29,16,11,21.70
2016,07,29,16,12,21.70
2016,07,29,16,13,21.60
2016,07,29,16,14,21.40
2016,07,29,16,15,21.30
2016,07,29,16,16,21.10
2016,07,29,16,17,21.00
2016,07,29,16,18,20.90
2016,07,29,16,19,20.80
2016,07,29,16,20,20.80
2016,07,29,16,21,20.80
2016,07,29,16,22,20.80
2016,07,29,16,23,20.80
2016,07,29,16,24,20.90
2016,07,29,16,25,20.90
2016,07,29,16,26,21.00
2016,07,29,16,27,21.00
2016,07,29,16,28,21.10
2016,07,29,16,29,21.10
2016,07,29,16,30,21.20
2016,07,29,16,31,21.20
2016,07,29,16,32,21.20
2016,07,29,16,33,21.20
2016,07,29,16,34,21.10
2016,07,29,16,35,21.10
2016,07,29,16,36,21.10
2016,07,29,16,37,21.10
2016,07,29,16,38,21.10
2016,07,29,16,39,21.10
2016,07,29,16,40,21.10
2016,07,29,16,41,21.10
2016,07,29,16,42,21.00
2016,07,29,16,43,21.00
2016,07,29,16,44,20.90
2016,07,29,16,45,20.90
2016,07,29,16,46,20.90
2016,07,29,16,47,20.90
2016,07,29,16,48,20.90
2016,07,29,16,49,21.00
2016,07,29,16,50,21.10
2016,07,29,16,51,21.10
2016,07,29,16,52,21.20
2016,07,29,16,53,21.20
2016,07,29,16,54,21.30
2016,07,29,16,55,21.30
2016,07,29,16,56,21.40
2016,07,29,16,57,21.50
2016,07,29,16,58,21.50
2016,07,29,16,59,21.60
2016,07,29,17,00,21.60
2016,07,29,17,01,21.60
2016,07,29,17,02,21.70
2016,07,29,17,03,21.70
2016,07,29,17,04,21.70
2016,07,29,17,05,21.80
2016,07,29,17,06,21.80
2016,07,29,17,07,21.80
2016,07,29,17,08,21.70
2016,07,29,17,09,21.60
2016,07,29,17,10,21.50
2016,07,29,17,11,21.40
2016,07,29,17,12,21.30
2016,07,29,17,13,21.20
2016,07,29,17,14,21.10
2016,07,29,17,15,21.10
2016,07,29,17,16,21.00
2016,07,29,17,17,20.90
2016,07,29,17,18,20.90
2016,07,29,17,19,20.90